Weather History for Pecos, TX

Change the Weather History Date:

Thursday, February 23, 2012

  Actual Average Record
Temperature  
Mean Temperature 65 °F -  
Max Temperature 82 °F 67 °F 92 °F (1904)
Min Temperature 48 °F 31 °F 15 °F (1953)
Growing Degree Days 15 (Base 50)    
Moisture  
Dew Point 15 °F    
Average Humidity 15    
Maximum Humidity 25    
Minimum Humidity 10    
Precipitation  
Precipitation 0.00 in - - ()
Sea Level Pressure  
Sea Level Pressure 29.70 in    
Wind  
Wind Speed 16 mph (SW)    
Max Wind Speed 40 mph    
Max Gust Speed 50 mph    
Visibility 10 miles    
Events      
Averages and records for this station are not official NWS values.
T = Trace of Precipitation, MM = Missing Value Source: NWS Daily Summary

Daily Weather History Graph

Daily Weather History Graph

Search for Another Location

Airport:

Trip Planner

Search our weather history database for the weather conditions in past years. The results will help you decide how hot, cold, wet, or windy it might be!

Date:

Astronomy

Feb. 23, 2012 Rise Set
Actual Time 7:27 AM CST 6:47 PM CST
Civil Twilight 7:03 AM CST 7:11 PM CST
Nautical Twilight 6:35 AM CST 7:40 PM CST
Astronomical Twilight 6:07 AM CST 8:08 PM CST
Moon 8:06 AM CST (2/23) 8:42 PM CST (2/23)
Length of Visible Light 12h 08m
Length of Day
11h 19m
Waxing Crescent, 3% of the Moon is Illuminated
Feb 23
Waxing Crescent
Feb 29
First Quarter
Mar 8
Full
Mar 14
Last Quarter
Mar 22
New

Hourly Weather History & Observations

Time (CST) Temp. Dew Point Humidity Pressure Visibility Wind Dir Wind Speed Gust Speed Precip Events Conditions
12:15 AM 61.2 °F 5.7 °F 11% 29.75 in 10.0 mi WSW 17.3 mph 21.9 mph N/A   Clear
12:35 AM 60.1 °F 5.9 °F 12% 29.75 in 10.0 mi SW 16.1 mph - N/A   Clear
12:55 AM 59.4 °F 6.3 °F 12% 29.76 in 10.0 mi SW 13.8 mph - N/A   Clear
1:15 AM 58.3 °F 6.6 °F 13% 29.76 in 10.0 mi WSW 12.7 mph - N/A   Clear
1:35 AM 57.0 °F 6.4 °F 13% 29.76 in 10.0 mi WSW 11.5 mph - N/A   Clear
1:55 AM 55.9 °F 6.6 °F 14% 29.76 in 10.0 mi SW 9.2 mph - N/A   Clear
2:15 AM 55.8 °F 6.8 °F 14% 29.76 in 10.0 mi SW 12.7 mph - N/A   Clear
2:35 AM 56.5 °F 7.2 °F 14% 29.76 in 10.0 mi SW 11.5 mph - N/A   Clear
2:55 AM 55.2 °F 7.3 °F 15% 29.77 in 10.0 mi SSW 9.2 mph - N/A   Clear
3:15 AM 52.9 °F 7.7 °F 16% 29.76 in 10.0 mi SW 8.1 mph - N/A   Clear
3:35 AM 52.9 °F 7.5 °F 16% 29.75 in 10.0 mi WSW 9.2 mph - N/A   Clear
3:55 AM 52.5 °F 7.5 °F 16% 29.75 in 10.0 mi SW 11.5 mph - N/A   Clear
4:15 AM 52.9 °F 7.9 °F 16% 29.73 in 10.0 mi SW 10.4 mph - N/A   Clear
4:35 AM 51.6 °F 8.8 °F 18% 29.73 in 10.0 mi SW 8.1 mph - N/A   Clear
4:55 AM 50.4 °F 9.5 °F 19% 29.72 in 10.0 mi Calm Calm - N/A   Clear
5:15 AM 48.7 °F 10.0 °F 21% 29.72 in 10.0 mi SSW 9.2 mph - N/A   Clear
5:35 AM 51.1 °F 10.4 °F 20% 29.71 in 10.0 mi South 9.2 mph - N/A   Clear
5:55 AM 49.6 °F 10.4 °F 21% 29.71 in 10.0 mi South 11.5 mph - N/A   Clear
6:15 AM 50.5 °F 11.5 °F 21% 29.71 in 10.0 mi SSW 10.4 mph - N/A   Clear
6:35 AM 51.6 °F 12.2 °F 21% 29.72 in 10.0 mi SSW 9.2 mph - N/A   Clear
6:55 AM 49.8 °F 12.9 °F 23% 29.72 in 10.0 mi SSW 10.4 mph - N/A   Clear
7:15 AM 50.2 °F 13.8 °F 23% 29.72 in 10.0 mi SSW 10.4 mph - N/A   Clear
7:35 AM 49.6 °F 14.9 °F 25% 29.72 in 10.0 mi SW 9.2 mph - N/A   Clear
7:55 AM 50.5 °F 15.1 °F 24% 29.72 in 10.0 mi SSW 8.1 mph - N/A   Clear
8:15 AM 53.2 °F 15.1 °F 22% 29.72 in 10.0 mi SW 8.1 mph - N/A   Clear
8:35 AM 57.6 °F 15.4 °F 19% 29.72 in 10.0 mi South 4.6 mph - N/A   Clear
8:55 AM 60.8 °F 16.0 °F 17% 29.71 in 10.0 mi Calm Calm - N/A   Clear
9:15 AM 63.9 °F 15.4 °F 15% 29.72 in 10.0 mi WSW 12.7 mph 20.7 mph N/A   Clear
9:35 AM 67.1 °F 15.6 °F 14% 29.73 in 10.0 mi WSW 11.5 mph - N/A   Clear
9:55 AM 68.7 °F 16.3 °F 13% 29.72 in 10.0 mi WSW 15.0 mph - N/A   Clear
10:15 AM 70.3 °F 17.2 °F 13% 29.73 in 10.0 mi West 32.2 mph 39.1 mph N/A   Clear
10:35 AM 72.9 °F 18.9 °F 13% 29.73 in 10.0 mi West 31.1 mph 43.7 mph N/A   Clear
10:55 AM 73.8 °F 19.4 °F 13% 29.72 in 10.0 mi West 31.1 mph 44.9 mph N/A   Clear
11:15 AM 74.7 °F 19.9 °F 13% 29.72 in 5.0 mi WSW 35.7 mph 49.5 mph N/A   Haze
11:35 AM 74.7 °F 19.9 °F 13% 29.72 in 10.0 mi WSW 38.0 mph 47.2 mph N/A   Clear
11:55 AM 75.4 °F 20.1 °F 13% 29.71 in 10.0 mi WSW 35.7 mph 47.2 mph N/A   Clear
12:15 PM 76.8 °F 20.7 °F 12% 29.71 in 10.0 mi West 31.1 mph 44.9 mph N/A   Clear
12:35 PM 78.3 °F 21.4 °F 12% 29.70 in 7.0 mi West 34.5 mph 47.2 mph N/A   Clear
12:55 PM 78.8 °F 21.6 °F 12% 29.70 in 10.0 mi WSW 40.3 mph 48.3 mph N/A   Clear
1:15 PM 79.5 °F 21.4 °F 12% 29.67 in 10.0 mi WSW 35.7 mph 46.0 mph N/A   Clear
1:35 PM 80.4 °F 21.6 °F 11% 29.66 in 10.0 mi West 33.4 mph 38.0 mph N/A   Clear
1:55 PM 80.8 °F 22.1 °F 11% 29.64 in 10.0 mi WSW 29.9 mph 39.1 mph N/A   Clear
2:15 PM 81.0 °F 21.6 °F 11% 29.63 in 10.0 mi WSW 31.1 mph 39.1 mph N/A   Clear
2:35 PM 81.5 °F 20.8 °F 11% 29.63 in 10.0 mi WSW 29.9 mph 39.1 mph N/A   Clear
2:55 PM 81.7 °F 20.3 °F 10% 29.62 in 10.0 mi WSW 31.1 mph 36.8 mph N/A   Clear
3:15 PM 81.9 °F 20.3 °F 10% 29.61 in 10.0 mi WSW 26.5 mph 39.1 mph N/A   Clear
3:35 PM 82.2 °F 20.5 °F 10% 29.61 in 10.0 mi WSW 27.6 mph 38.0 mph N/A   Clear
3:55 PM 82.6 °F 20.3 °F 10% 29.60 in 10.0 mi WSW 26.5 mph 39.1 mph N/A   Clear
4:15 PM 82.6 °F 19.8 °F 10% 29.60 in 10.0 mi WSW 23.0 mph 35.7 mph N/A   Clear
4:35 PM 82.8 °F 19.8 °F 10% 29.60 in 10.0 mi WSW 23.0 mph 34.5 mph N/A   Clear
4:55 PM 82.6 °F 19.8 °F 10% 29.62 in 10.0 mi WSW 25.3 mph 34.5 mph N/A   Clear
5:35 PM 81.1 °F 18.3 °F 10% 29.63 in 10.0 mi West 23.0 mph - N/A   Clear
5:55 PM 80.1 °F 18.3 °F 10% 29.63 in 10.0 mi West 21.9 mph 28.8 mph N/A   Clear
6:15 PM 78.3 °F 16.9 °F 10% 29.65 in 10.0 mi West 21.9 mph 29.9 mph N/A   Clear
6:35 PM 76.3 °F 16.3 °F 10% 29.65 in 10.0 mi West 18.4 mph 24.2 mph N/A   Clear
6:55 PM 74.3 °F 16.2 °F 11% 29.65 in 10.0 mi WSW 17.3 mph - N/A   Clear
7:15 PM 72.3 °F 15.8 °F 12% 29.66 in 10.0 mi WSW 15.0 mph - N/A   Clear
7:35 PM 70.5 °F 15.6 °F 12% 29.68 in 10.0 mi West 10.4 mph - N/A   Clear
7:55 PM 67.3 °F 15.6 °F 14% 29.70 in 10.0 mi West 10.4 mph - N/A   Clear
8:15 PM 65.1 °F 15.6 °F 15% 29.70 in 10.0 mi West 13.8 mph - N/A   Clear
8:35 PM 66.6 °F 16.3 °F 15% 29.71 in 10.0 mi West 12.7 mph - N/A   Clear
8:55 PM 68.7 °F 16.5 °F 14% 29.73 in 10.0 mi West 18.4 mph - N/A   Clear
9:15 PM 68.9 °F 16.9 °F 14% 29.77 in 10.0 mi North 20.7 mph 28.8 mph N/A   Clear
9:35 PM 62.8 °F 25.5 °F 24% 29.81 in 10.0 mi North 17.3 mph 26.5 mph N/A   Clear
9:55 PM 59.7 °F 27.9 °F 30% 29.84 in 10.0 mi NE 23.0 mph 28.8 mph N/A   Clear
10:15 PM 58.5 °F 27.3 °F 30% 29.87 in 10.0 mi NE 23.0 mph 29.9 mph N/A   Clear
10:35 PM 57.0 °F 26.6 °F 31% 29.90 in 10.0 mi NNE 26.5 mph 32.2 mph N/A   Clear
10:55 PM 55.8 °F 25.7 °F 31% 29.94 in 10.0 mi NNE 16.1 mph 35.7 mph N/A   Clear
11:15 PM 54.1 °F 23.9 °F 31% 29.97 in 7.0 mi NNE 23.0 mph 29.9 mph N/A   Scattered Clouds
11:35 PM 52.5 °F 20.7 °F 29% 30.04 in 7.0 mi North 16.1 mph 28.8 mph N/A   Mostly Cloudy
11:55 PM 50.5 °F 16.7 °F 26% 30.08 in 7.0 mi North 19.6 mph 27.6 mph N/A   Mostly Cloudy